When you browse on this site, cookies collect data to enhance your experience and personalize the content and advertising you see.
Visit our Privacy Policy to learn more. By continuing to use the site, you agree to this use of cookies and data.
  • In Hungary
  • List of Countries
  • For 7 days
  • Water Temperature
  • Weather Map
  • News
  • Weather Widgets
  • user-avatar
    Login

    Hourly Weather Kaczeniec

    Today, 22 September, Sunday

    Time Temperature Precipitation Wind Pressure Humidity
    00:00 +9°C° 0 mm 2 mps 741 mmHg 96%
    01:00 +8°C° 0 mm 2 mps 741 mmHg 95%
    02:00 +8°C° 0 mm 2 mps 741 mmHg 95%
    03:00 +8°C° 0 mm 2 mps 740 mmHg 96%
    04:00 +8°C° 0 mm 2 mps 740 mmHg 96%
    05:00 +8°C° 0 mm 2 mps 740 mmHg 94%
    06:00 +9°C° 0 mm 2 mps 740 mmHg 91%
    07:00 +9°C° 0 mm 2 mps 740 mmHg 89%
    08:00 +11°C° 0 mm 3 mps 740 mmHg 82%
    09:00 +14°C° 0 mm 3 mps 740 mmHg 74%
    10:00 +17°C° 0 mm 3 mps 740 mmHg 66%
    11:00 +18°C° 0 mm 3 mps 740 mmHg 61%
    12:00 +19°C° 0 mm 3 mps 739 mmHg 56%
    13:00 +20°C° 0 mm 3 mps 739 mmHg 51%
    14:00 +20°C° 0 mm 2 mps 739 mmHg 52%
    15:00 +20°C° 0 mm 2 mps 739 mmHg 54%
    16:00 +21°C° 0 mm 1 mps 738 mmHg 55%
    17:00 +19°C° 0 mm 1 mps 738 mmHg 64%
    18:00 +15°C° 0 mm 2 mps 738 mmHg 72%
    19:00 +13°C° 0 mm 2 mps 738 mmHg 80%
    20:00 +13°C° 0 mm 2 mps 738 mmHg 82%
    21:00 +12°C° 0 mm 2 mps 739 mmHg 85%
    22:00 +10°C° 0 mm 2 mps 739 mmHg 88%
    23:00 +10°C° 0 mm 2 mps 739 mmHg 90%

    Tomorrow, 23 September, Monday

    Time Temperature Precipitation Wind Pressure Humidity
    00:00 +10°C° 0 mm 3 mps 739 mmHg 93%
    01:00 +10°C° 0 mm 3 mps 739 mmHg 95%
    02:00 +9°C° 0 mm 3 mps 739 mmHg 93%
    03:00 +8°C° 0 mm 4 mps 739 mmHg 91%
    04:00 +8°C° 0 mm 4 mps 739 mmHg 88%
    05:00 +8°C° 0 mm 4 mps 740 mmHg 85%
    06:00 +10°C° 0 mm 4 mps 740 mmHg 81%
    07:00 +10°C° 0 mm 4 mps 740 mmHg 78%
    08:00 +11°C° 0 mm 4 mps 740 mmHg 74%
    09:00 +12°C° 0 mm 4 mps 741 mmHg 70%
    10:00 +13°C° 0 mm 5 mps 741 mmHg 66%
    11:00 +14°C° 0 mm 5 mps 741 mmHg 64%
    12:00 +14°C° 0 mm 5 mps 741 mmHg 62%
    13:00 +15°C° 0 mm 4 mps 741 mmHg 60%
    14:00 +14°C° 0 mm 4 mps 740 mmHg 61%
    15:00 +14°C° 0 mm 4 mps 740 mmHg 62%
    16:00 +14°C° 0 mm 4 mps 740 mmHg 63%
    17:00 +12°C° 0 mm 4 mps 740 mmHg 67%
    18:00 +11°C° 0 mm 3 mps 740 mmHg 72%
    19:00 +9°C° 0 mm 3 mps 740 mmHg 77%
    20:00 +9°C° 0 mm 3 mps 740 mmHg 77%
    21:00 +8°C° 0 mm 3 mps 740 mmHg 77%
    22:00 +8°C° 0 mm 3 mps 741 mmHg 78%
    23:00 +7°C° 0 mm 3 mps 740 mmHg 78%

    Day after tomorrow, 24 September, Tuesday

    Time Temperature Precipitation Wind Pressure Humidity
    00:00 +7°C° 0 mm 3 mps 740 mmHg 79%
    01:00 +5°C° 0 mm 3 mps 740 mmHg 79%
    02:00 +5°C° 0 mm 3 mps 740 mmHg 81%
    03:00 +5°C° 0 mm 3 mps 739 mmHg 82%
    04:00 +4°C° 0 mm 3 mps 739 mmHg 83%
    05:00 +5°C° 0 mm 3 mps 739 mmHg 81%
    06:00 +7°C° 0 mm 3 mps 739 mmHg 80%
    07:00 +7°C° 0 mm 3 mps 739 mmHg 78%
    08:00 +9°C° 0 mm 3 mps 739 mmHg 73%
    09:00 +12°C° 0 mm 3 mps 739 mmHg 68%
    10:00 +14°C° 0 mm 3 mps 739 mmHg 63%
    11:00 +16°C° 0 mm 3 mps 738 mmHg 61%
    12:00 +17°C° 0 mm 3 mps 738 mmHg 58%
    13:00 +19°C° 0 mm 3 mps 737 mmHg 56%
    14:00 +18°C° 0 mm 3 mps 737 mmHg 57%
    15:00 +18°C° 0 mm 3 mps 737 mmHg 58%
    16:00 +18°C° 0 mm 3 mps 736 mmHg 59%
    17:00 +16°C° 0 mm 3 mps 736 mmHg 65%
    18:00 +14°C° 0 mm 3 mps 736 mmHg 70%
    19:00 +12°C° 0 mm 3 mps 735 mmHg 76%
    20:00 +12°C° 0.1 mm 4 mps 735 mmHg 75%
    21:00 +12°C° 0.1 mm 4 mps 735 mmHg 73%
    22:00 +12°C° 0.1 mm 4 mps 735 mmHg 72%
    23:00 +11°C° 0.1 mm 4 mps 735 mmHg 73%

    25 September, Wednesday

    Time Temperature Precipitation Wind Pressure Humidity
    00:00 +11°C° 0.1 mm 4 mps 734 mmHg 73%
    01:00 +11°C° 0.1 mm 4 mps 734 mmHg 74%
    02:00 +11°C° 0 mm 4 mps 734 mmHg 75%
    03:00 +11°C° 0 mm 4 mps 734 mmHg 76%
    04:00 +11°C° 0 mm 3 mps 733 mmHg 77%
    05:00 +11°C° 0.1 mm 3 mps 733 mmHg 78%
    06:00 +11°C° 0.1 mm 3 mps 733 mmHg 79%
    07:00 +11°C° 0.1 mm 3 mps 732 mmHg 81%
    08:00 +11°C° 0.1 mm 3 mps 732 mmHg 80%
    09:00 +12°C° 0.1 mm 3 mps 732 mmHg 80%
    10:00 +12°C° 0.1 mm 3 mps 732 mmHg 79%
    11:00 +12°C° 0.1 mm 3 mps 732 mmHg 79%
    12:00 +14°C° 0.1 mm 2 mps 732 mmHg 79%
    13:00 +14°C° 0.1 mm 2 mps 731 mmHg 78%
    14:00 +14°C° 0 mm 2 mps 731 mmHg 78%
    15:00 +15°C° 0 mm 2 mps 731 mmHg 77%
    16:00 +15°C° 0 mm 2 mps 731 mmHg 76%
    17:00 +14°C° 0 mm 1 mps 731 mmHg 79%
    18:00 +14°C° 0 mm 1 mps 731 mmHg 82%
    19:00 +13°C° 0 mm 1 mps 731 mmHg 85%
    20:00 +13°C° 0.1 mm 1 mps 731 mmHg 87%
    21:00 +13°C° 0.1 mm 1 mps 731 mmHg 89%
    22:00 +12°C° 0.1 mm 0 mps 731 mmHg 91%
    23:00 +13°C° 0.1 mm 1 mps 731 mmHg 92%

    26 September, Thursday

    Time Temperature Precipitation Wind Pressure Humidity
    00:00 +12°C° 0.1 mm 1 mps 731 mmHg 93%
    01:00 +12°C° 0.1 mm 1 mps 731 mmHg 94%
    02:00 +12°C° 0 mm 1 mps 731 mmHg 94%
    03:00 +12°C° 0 mm 1 mps 731 mmHg 95%
    04:00 +12°C° 0 mm 1 mps 732 mmHg 96%
    05:00 +12°C° 0 mm 1 mps 732 mmHg 96%
    06:00 +12°C° 0 mm 1 mps 732 mmHg 95%
    07:00 +12°C° 0 mm 1 mps 732 mmHg 95%
    08:00 +13°C° 0 mm 1 mps 733 mmHg 92%
    09:00 +13°C° 0 mm 2 mps 733 mmHg 88%
    10:00 +14°C° 0 mm 2 mps 734 mmHg 84%
    11:00 +15°C° 0.3 mm 2 mps 734 mmHg 81%
    12:00 +16°C° 0.3 mm 2 mps 734 mmHg 77%
    13:00 +17°C° 0.3 mm 2 mps 734 mmHg 74%
    14:00 +16°C° 0.8 mm 2 mps 734 mmHg 77%
    15:00 +16°C° 0.8 mm 2 mps 734 mmHg 80%
    16:00 +15°C° 0.8 mm 2 mps 734 mmHg 84%
    17:00 +14°C° 0.3 mm 2 mps 735 mmHg 87%
    18:00 +13°C° 0.3 mm 2 mps 735 mmHg 91%
    19:00 +12°C° 0.3 mm 1 mps 735 mmHg 94%
    20:00 +12°C° 0.1 mm 1 mps 735 mmHg 94%
    21:00 +12°C° 0.1 mm 1 mps 735 mmHg 95%
    22:00 +11°C° 0.1 mm 1 mps 736 mmHg 95%
    23:00 +10°C° 0.1 mm 2 mps 736 mmHg 95%

    27 September, Friday

    Time Temperature Precipitation Wind Pressure Humidity
    00:00 +9°C° 0.1 mm 2 mps 736 mmHg 95%
    01:00 +9°C° 0.1 mm 2 mps 736 mmHg 95%
    02:00 +9°C° 0 mm 2 mps 736 mmHg 95%
    03:00 +9°C° 0 mm 2 mps 736 mmHg 94%
    04:00 +9°C° 0 mm 2 mps 736 mmHg 93%
    05:00 +8°C° 0 mm 2 mps 736 mmHg 93%
    06:00 +8°C° 0 mm 2 mps 736 mmHg 92%
    07:00 +8°C° 0 mm 2 mps 737 mmHg 91%
    08:00 +9°C° 0 mm 2 mps 737 mmHg 87%
    09:00 +10°C° 0 mm 2 mps 737 mmHg 82%
    10:00 +12°C° 0 mm 2 mps 738 mmHg 77%
    11:00 +13°C° 0 mm 2 mps 737 mmHg 75%
    12:00 +14°C° 0 mm 2 mps 737 mmHg 72%
    13:00 +15°C° 0 mm 2 mps 737 mmHg 69%
    14:00 +15°C° 0 mm 2 mps 737 mmHg 71%
    15:00 +15°C° 0 mm 2 mps 737 mmHg 73%
    16:00 +14°C° 0 mm 3 mps 737 mmHg 75%
    17:00 +13°C° 0 mm 3 mps 737 mmHg 77%
    18:00 +13°C° 0 mm 3 mps 737 mmHg 79%
    19:00 +12°C° 0 mm 4 mps 737 mmHg 82%
    20:00 +12°C° 0.3 mm 4 mps 737 mmHg 85%
    21:00 +12°C° 0.3 mm 4 mps 737 mmHg 88%
    22:00 +12°C° 0.3 mm 4 mps 737 mmHg 91%
    23:00 +12°C° 0.1 mm 4 mps 736 mmHg 93%
    Show more